Weather History for K08D - February, 2014

Change the Weather History Date:

Thursday, February 13, 2014

  Actual Average (KMOT) Record (KMOT)
Temperature  
Mean Temperature 2 °F 16 °F  
Max Temperature 12 °F 25 °F 50 °F (1924)
Min Temperature -9 °F 8 °F -32 °F (1916)
Degree Days  
Heating Degree Days 64 49  
Month to date heating degree days 651  
Since 1 July heating degree days 5883  
Moisture  
Dew Point -4 °F    
Average Humidity 82    
Maximum Humidity 92    
Minimum Humidity 71    
Precipitation  
Precipitation 0.46 in 0.02 in 0.25 in (1982)
Month to date precipitation 0.17  
Year to date precipitation 0.68  
Sea Level Pressure  
Sea Level Pressure 29.69 in    
Wind  
Wind Speed 11 mph (NE)    
Max Wind Speed 20 mph    
Max Gust Speed 29 mph    
Visibility 9 miles    
Events Rain , Snow    
T = Trace of Precipitation, MM = Missing Value Source: NWS Daily Summary

Daily Weather History Graph

Daily Weather History Graph

Search for Another Location

Airport or City:

Trip Planner

Search our weather history database for the weather conditions in past years. The results will help you decide how hot, cold, wet, or windy it might be!

Date:

Astronomy

Feb. 13, 2014 Rise Set
Actual Time 7:59 AM CST 6:08 PM CST
Civil Twilight 7:27 AM CST 6:40 PM CST
Nautical Twilight 6:50 AM CST 7:17 PM CST
Astronomical Twilight 6:14 AM CST 7:53 PM CST
Moon 5:19 PM CST (2/13) 6:55 AM CST (2/13)
Length of Visible Light 11h 13m
Length of Day
10h 08m
Waxing Gibbous, 99% of the Moon is Illuminated
Feb 13
Waxing Gibbous
Feb 14
Full
Feb 22
Last Quarter
Mar 1
New
Mar 8
First Quarter

Hourly Weather History & Observations

Time (CST) Temp. Windchill Dew Point Humidity Pressure Visibility Wind Dir Wind Speed Gust Speed Precip Events Conditions
12:15 AM 12.2 °F -5.8 °F 10.4 °F 92% 29.39 in 10.0 mi NNW 19.6 mph 25.3 mph N/A Snow Light Snow
12:35 AM 10.4 °F -5.4 °F 6.8 °F 85% 29.43 in 10.0 mi NNW 13.8 mph 21.9 mph N/A Snow Light Snow
12:55 AM 8.6 °F -8.9 °F 5.0 °F 85% 29.44 in 10.0 mi NNW 16.1 mph 23.0 mph 0.01 in Snow Light Snow
1:15 AM 8.6 °F -7.7 °F 5.0 °F 85% 29.47 in 10.0 mi NNW 13.8 mph 19.6 mph N/A Snow Light Snow
1:35 AM 6.8 °F -12.4 °F 3.2 °F 85% 29.50 in 10.0 mi NNW 18.4 mph 26.5 mph 0.01 in Snow Light Snow
1:55 AM 6.8 °F -12.9 °F 1.4 °F 79% 29.51 in 10.0 mi North 19.6 mph 28.8 mph 0.01 in Rain Light Freezing Rain
2:15 AM 5.0 °F -13.0 °F -0.4 °F 78% 29.56 in 10.0 mi NNW 15.0 mph 20.7 mph N/A Snow Light Snow
2:35 AM 1.4 °F -19.4 °F -2.2 °F 85% 29.59 in 10.0 mi North 18.4 mph - N/A   Overcast
2:55 AM -0.4 °F -19.2 °F -4.0 °F 85% 29.60 in 10.0 mi North 13.8 mph 19.6 mph N/A   Mostly Cloudy
3:15 AM -0.4 °F -17.6 °F -5.8 °F 78% 29.63 in 10.0 mi North 11.5 mph - N/A   Overcast
3:35 AM -2.2 °F -20.7 °F -7.6 °F 78% 29.63 in 10.0 mi NNW 12.7 mph 18.4 mph N/A   Mostly Cloudy
3:55 AM -2.2 °F -18.0 °F -7.6 °F 78% 29.64 in 10.0 mi NNW 9.2 mph - N/A   Mostly Cloudy
4:15 AM -2.2 °F -18.9 °F -7.6 °F 78% 29.67 in 10.0 mi NW 10.4 mph - N/A   Partly Cloudy
4:35 AM -2.2 °F -18.9 °F -9.4 °F 71% 29.68 in 10.0 mi NNW 10.4 mph - N/A   Clear
4:55 AM -4.0 °F -22.1 °F -9.4 °F 78% 29.70 in 10.0 mi NNW 11.5 mph - N/A   Clear
5:15 AM -4.0 °F -22.1 °F -9.4 °F 78% 29.70 in 10.0 mi NNW 11.5 mph 17.3 mph N/A   Clear
5:35 AM -4.0 °F -14.6 °F -9.4 °F 78% 29.72 in 10.0 mi NNW 4.6 mph - N/A   Clear
5:55 AM -5.8 °F -21.2 °F -9.4 °F 84% 29.73 in 10.0 mi NW 8.1 mph - N/A   Clear
6:15 AM -5.8 °F -21.2 °F -9.4 °F 84% 29.73 in 10.0 mi NNW 8.1 mph - N/A   Clear
6:35 AM -5.8 °F -16.7 °F -11.2 °F 77% 29.74 in 10.0 mi NW 4.6 mph - N/A   Partly Cloudy
6:55 AM -7.6 °F -18.8 °F - N/A% 29.74 in 10.0 mi West 4.6 mph - N/A   Partly Cloudy
7:15 AM -7.6 °F -20.6 °F -13.0 °F 77% 29.74 in 10.0 mi WNW 5.8 mph - N/A   Clear
7:35 AM -7.6 °F -20.6 °F -11.2 °F 84% 29.73 in 10.0 mi WNW 5.8 mph - N/A   Clear
7:55 AM -9.4 °F -24.3 °F -13.0 °F 84% 29.74 in 10.0 mi WNW 6.9 mph - N/A   Clear
8:15 AM -7.6 °F -20.6 °F - N/A% 29.74 in 10.0 mi WNW 5.8 mph - N/A   Clear
8:35 AM -7.6 °F -18.8 °F - N/A% 29.76 in 10.0 mi WNW 4.6 mph - N/A   Clear
8:55 AM -7.6 °F -18.8 °F -11.2 °F 84% 29.76 in 10.0 mi NW 4.6 mph - N/A   Clear
9:15 AM -5.8 °F -18.4 °F -11.2 °F 77% 29.78 in 10.0 mi West 5.8 mph - N/A   Clear
9:35 AM -4.0 °F -17.8 °F -11.2 °F 71% 29.78 in 10.0 mi NW 6.9 mph - N/A   Clear
9:55 AM -4.0 °F -19.0 °F -9.4 °F 78% 29.78 in 10.0 mi WNW 8.1 mph - N/A   Clear
10:15 AM -4.0 °F -17.8 °F -9.4 °F 78% 29.77 in 10.0 mi WNW 6.9 mph - N/A   Mostly Cloudy
10:35 AM -4.0 °F -14.6 °F -9.4 °F 78% 29.76 in 10.0 mi NNW 4.6 mph - N/A   Mostly Cloudy
10:55 AM -2.2 °F -15.6 °F -9.4 °F 71% 29.75 in 10.0 mi North 6.9 mph - N/A   Overcast
11:15 AM -2.2 °F -14.2 °F -9.4 °F 71% 29.73 in 10.0 mi North 5.8 mph - N/A   Partly Cloudy
11:35 AM -0.4 °F -8.3 °F -7.6 °F 72% 29.74 in 10.0 mi NNE 3.5 mph - N/A   Clear
11:55 AM -0.4 °F - -7.6 °F 72% 29.75 in 10.0 mi Calm Calm - N/A   Clear
12:15 PM -0.4 °F - -7.6 °F 72% 29.76 in 10.0 mi Calm Calm - N/A   Clear
12:35 PM -0.4 °F - -7.6 °F 72% 29.74 in 10.0 mi Calm Calm - N/A   Clear
12:55 PM -0.4 °F -10.4 °F -7.6 °F 72% 29.71 in 10.0 mi ESE 4.6 mph - N/A   Clear
1:35 PM -0.4 °F - -5.8 °F 78% 29.72 in 10.0 mi Calm Calm - N/A   Clear
1:55 PM 1.4 °F -8.3 °F -4.0 °F 78% 29.71 in 10.0 mi SE 4.6 mph - N/A   Clear
2:15 PM 1.4 °F -9.9 °F -4.0 °F 78% 29.70 in 10.0 mi East 5.8 mph - N/A   Clear
2:35 PM 1.4 °F -8.3 °F -4.0 °F 78% 29.69 in 10.0 mi East 4.6 mph - N/A   Clear
2:55 PM 1.4 °F -12.5 °F -4.0 °F 78% 29.68 in 10.0 mi East 8.1 mph - N/A   Clear
3:15 PM 1.4 °F -12.5 °F -4.0 °F 78% 29.68 in 10.0 mi ESE 8.1 mph - N/A   Clear
3:35 PM 1.4 °F -12.5 °F -4.0 °F 78% 29.68 in 10.0 mi East 8.1 mph - N/A   Clear
3:55 PM 1.4 °F -9.9 °F -4.0 °F 78% 29.71 in 10.0 mi SE 5.8 mph - N/A   Clear
4:15 PM 1.4 °F -9.9 °F -4.0 °F 78% 29.71 in 10.0 mi SE 5.8 mph - N/A   Clear
4:35 PM 1.4 °F -11.3 °F -2.2 °F 85% 29.71 in 10.0 mi ESE 6.9 mph - N/A   Clear
4:55 PM 1.4 °F -13.5 °F -2.2 °F 85% 29.70 in 10.0 mi East 9.2 mph - N/A   Clear
5:15 PM 1.4 °F -14.5 °F -2.2 °F 85% 29.68 in 10.0 mi ESE 10.4 mph - N/A   Scattered Clouds
5:55 PM 1.4 °F -14.5 °F -2.2 °F 85% 29.69 in 10.0 mi East 10.4 mph - N/A   Overcast
6:15 PM 1.4 °F -15.3 °F -2.2 °F 85% 29.70 in 10.0 mi ESE 11.5 mph - N/A   Overcast
6:35 PM 1.4 °F -16.1 °F -2.2 °F 85% 29.69 in 10.0 mi ESE 12.7 mph - N/A   Overcast
6:55 PM 1.4 °F -15.3 °F -2.2 °F 85% 29.69 in 10.0 mi East 11.5 mph - N/A   Overcast
7:15 PM 1.4 °F -15.3 °F -2.2 °F 85% 29.72 in 10.0 mi ESE 11.5 mph - N/A   Overcast
7:35 PM 1.4 °F -15.3 °F -2.2 °F 85% 29.72 in 10.0 mi ESE 11.5 mph - N/A   Overcast
7:55 PM 1.4 °F -14.5 °F -0.4 °F 92% 29.72 in 7.0 mi ESE 10.4 mph - N/A Snow Light Snow
8:15 PM 1.4 °F -13.5 °F -0.4 °F 92% 29.72 in 1.2 mi ESE 9.2 mph - 0.04 in Snow Light Snow
8:35 PM 1.4 °F -12.5 °F -0.4 °F 92% 29.73 in 1.8 mi ESE 8.1 mph - 0.10 in Snow Light Snow
8:55 PM 1.4 °F -13.5 °F -0.4 °F 92% 29.72 in 1.8 mi ESE 9.2 mph - 0.18 in Snow Light Snow
9:15 PM 1.4 °F -14.5 °F -0.4 °F 92% 29.73 in 1.5 mi ESE 10.4 mph - 0.05 in Snow Light Snow
9:35 PM 1.4 °F -13.5 °F -0.4 °F 92% 29.73 in 1.2 mi East 9.2 mph - 0.14 in Snow Light Snow
9:55 PM 1.4 °F -12.5 °F -0.4 °F 92% 29.74 in 1.8 mi ESE 8.1 mph - 0.21 in Snow Light Snow
10:15 PM 1.4 °F -13.5 °F -0.4 °F 92% 29.74 in 4.0 mi ESE 9.2 mph - 0.01 in Snow Light Snow
10:35 PM 3.2 °F -9.1 °F -0.4 °F 85% 29.75 in 5.0 mi ESE 6.9 mph - 0.03 in Snow Light Snow
10:55 PM 3.2 °F -9.1 °F -0.4 °F 85% 29.77 in 5.0 mi East 6.9 mph - 0.05 in Snow Light Snow
11:15 PM 3.2 °F -9.1 °F -0.4 °F 85% 29.77 in 10.0 mi ESE 6.9 mph - N/A Snow Light Snow
11:35 PM 3.2 °F -12.2 °F -0.4 °F 85% 29.76 in 9.0 mi ESE 10.4 mph - N/A Snow Light Snow
11:55 PM 3.2 °F -10.3 °F -0.4 °F 85% 29.77 in 10.0 mi East 8.1 mph - N/A   Overcast